Weather History for Kake, AK

Change the Weather History Date:

Sunday, December 16, 2012

  Actual Average Record
Temperature  
Mean Temperature 30 °F -  
Max Temperature 33 °F 35 °F 46 °F (2004)
Min Temperature 28 °F 29 °F 17 °F (2001)
Degree Days  
Heating Degree Days 34    
Moisture  
Dew Point 28 °F    
Average Humidity 84    
Maximum Humidity 93    
Minimum Humidity 81    
Precipitation  
Precipitation 0.02 in - - ()
Sea Level Pressure  
Sea Level Pressure 29.24 in    
Wind  
Wind Speed 8 mph (ESE)    
Max Wind Speed 13 mph    
Max Gust Speed 18 mph    
Visibility 9 miles    
Events      
Averages and records for this station are not official NWS values.
T = Trace of Precipitation, MM = Missing Value Source: NWS Daily Summary

Daily Weather History Graph

Daily Weather History Graph

Search for Another Location

Airport:

Trip Planner

Search our weather history database for the weather conditions in past years. The results will help you decide how hot, cold, wet, or windy it might be!

Date:

Astronomy

Dec. 16, 2012 Rise Set
Actual Time 8:29 AM AKST 3:14 PM AKST
Civil Twilight 7:39 AM AKST 4:03 PM AKST
Nautical Twilight 6:49 AM AKST 4:54 PM AKST
Astronomical Twilight 6:02 AM AKST 5:41 PM AKST
Moon 10:26 AM AKST (12/16) 8:22 PM AKST (12/16)
Length of Visible Light 8h 23m
Length of Day
6h 44m
Waxing Crescent, 17% of the Moon is Illuminated
Dec 16
Waxing Crescent
Dec 19
First Quarter
Dec 28
Full
Jan 4
Last Quarter
Jan 11
New

Hourly Weather History & Observations

Time (AKST) Temp. Windchill Dew Point Humidity Pressure Visibility Wind Dir Wind Speed Gust Speed Precip Events Conditions
12:16 AM 33.8 °F 29.6 °F 28.4 °F 81% 29.25 in 1.0 mi ESE 4.6 mph - N/A   Overcast
12:36 AM 33.8 °F 27.7 °F 30.2 °F 87% 29.25 in 1.8 mi ESE 6.9 mph - N/A   Overcast
12:56 AM 33.8 °F 28.6 °F 30.2 °F 87% 29.25 in 9.0 mi East 5.8 mph - N/A   Overcast
1:16 AM 33.8 °F 27.0 °F 28.4 °F 81% 29.25 in 10.0 mi ESE 8.1 mph - N/A   Overcast
1:36 AM 33.8 °F 26.4 °F 28.4 °F 81% 29.25 in 5.0 mi ESE 9.2 mph - N/A   Overcast
1:56 AM 33.8 °F 28.6 °F 30.2 °F 87% 29.25 in 8.0 mi ESE 5.8 mph - N/A   Overcast
2:16 AM 33.8 °F 27.7 °F 28.4 °F 81% 29.25 in 10.0 mi ESE 6.9 mph - N/A   Overcast
2:36 AM 33.8 °F 27.7 °F 28.4 °F 81% 29.25 in 10.0 mi ESE 6.9 mph - N/A   Overcast
2:56 AM 33.8 °F 27.0 °F 28.4 °F 81% 29.24 in 10.0 mi East 8.1 mph - N/A   Overcast
3:16 AM 33.8 °F 27.0 °F 28.4 °F 81% 29.24 in 9.0 mi ESE 8.1 mph - N/A   Overcast
3:36 AM 33.8 °F 27.0 °F 28.4 °F 81% 29.24 in 1.0 mi ESE 8.1 mph - N/A   Overcast
3:56 AM 33.8 °F 25.8 °F 28.4 °F 81% 29.24 in 10.0 mi ESE 10.4 mph - N/A   Overcast
4:16 AM 33.8 °F 27.0 °F 28.4 °F 81% 29.24 in 4.0 mi ESE 8.1 mph - N/A   Overcast
4:36 AM 33.8 °F 26.4 °F 30.2 °F 87% 29.24 in 4.0 mi East 9.2 mph - N/A   Overcast
4:56 AM 33.8 °F 27.0 °F 28.4 °F 81% 29.24 in 3.0 mi ESE 8.1 mph - N/A   Overcast
5:16 AM 33.8 °F 27.0 °F 28.4 °F 81% 29.24 in 5.0 mi ESE 8.1 mph - N/A   Overcast
5:36 AM 33.8 °F 27.0 °F 28.4 °F 81% 29.23 in 5.0 mi ESE 8.1 mph - N/A   Mostly Cloudy
5:56 AM 32.0 °F 24.2 °F 28.4 °F 87% 29.23 in 10.0 mi ESE 9.2 mph - N/A   Mostly Cloudy
6:16 AM 33.8 °F 27.0 °F 28.4 °F 81% 29.23 in 6.0 mi ESE 8.1 mph - N/A   Overcast
6:36 AM 33.8 °F 24.8 °F 28.4 °F 81% 29.24 in 10.0 mi ESE 12.7 mph - N/A   Overcast
6:56 AM 33.8 °F 25.8 °F 28.4 °F 81% 29.23 in 10.0 mi SE 10.4 mph 18.4 mph N/A   Overcast
7:16 AM 33.8 °F 27.7 °F 28.4 °F 81% 29.23 in 5.0 mi ESE 6.9 mph - N/A   Overcast
7:36 AM 33.8 °F 25.3 °F 28.4 °F 81% 29.23 in 10.0 mi SE 11.5 mph - N/A   Overcast
7:56 AM 33.8 °F 27.7 °F 28.4 °F 81% 29.23 in 10.0 mi ESE 6.9 mph - N/A   Overcast
8:16 AM 33.8 °F 27.0 °F 28.4 °F 81% 29.23 in 10.0 mi ESE 8.1 mph - N/A   Overcast
8:36 AM 33.8 °F 25.8 °F 30.2 °F 87% 29.23 in 9.0 mi East 10.4 mph - N/A   Overcast
8:56 AM 33.8 °F 24.8 °F 28.4 °F 81% 29.24 in 10.0 mi SE 12.7 mph - N/A   Mostly Cloudy
9:16 AM 33.8 °F 27.0 °F 28.4 °F 81% 29.24 in 10.0 mi ESE 8.1 mph - N/A   Mostly Cloudy
9:36 AM 33.8 °F 26.4 °F 28.4 °F 81% 29.24 in 10.0 mi ESE 9.2 mph - N/A   Overcast
9:56 AM 33.8 °F 25.8 °F 28.4 °F 81% 29.24 in 10.0 mi ESE 10.4 mph - N/A   Mostly Cloudy
10:16 AM 33.8 °F 27.7 °F 28.4 °F 81% 29.25 in 10.0 mi ESE 6.9 mph - N/A   Mostly Cloudy
10:36 AM 33.8 °F 25.3 °F 28.4 °F 81% 29.24 in 10.0 mi SE 11.5 mph 16.1 mph N/A   Mostly Cloudy
10:56 AM 33.8 °F 26.4 °F 28.4 °F 81% 29.24 in 10.0 mi ESE 9.2 mph - N/A   Mostly Cloudy
11:16 AM 33.8 °F 26.4 °F 28.4 °F 81% 29.24 in 10.0 mi ESE 9.2 mph - 0.01 in   Mostly Cloudy
11:36 AM 33.8 °F 27.7 °F 28.4 °F 81% 29.24 in 10.0 mi ESE 6.9 mph - 0.01 in   Mostly Cloudy
11:56 AM 33.8 °F 27.0 °F 28.4 °F 81% 29.23 in 10.0 mi ESE 8.1 mph - 0.01 in   Mostly Cloudy
12:16 PM 33.8 °F 27.7 °F 28.4 °F 81% 29.23 in 10.0 mi East 6.9 mph - N/A   Scattered Clouds
12:36 PM 33.8 °F 27.0 °F 28.4 °F 81% 29.23 in 10.0 mi ESE 8.1 mph - N/A   Mostly Cloudy
12:56 PM 33.8 °F 27.0 °F 28.4 °F 81% 29.23 in 10.0 mi ESE 8.1 mph - N/A   Mostly Cloudy
1:16 PM 33.8 °F 27.0 °F 28.4 °F 81% 29.24 in 1.2 mi SE 8.1 mph - N/A   Overcast
1:36 PM 33.8 °F 25.8 °F 28.4 °F 81% 29.23 in 1.0 mi ESE 10.4 mph 17.3 mph N/A   Overcast
1:56 PM 32.0 °F 26.4 °F 28.4 °F 87% 29.24 in 9.0 mi ESE 5.8 mph - N/A   Overcast
2:16 PM 33.8 °F 26.4 °F 28.4 °F 81% 29.24 in 10.0 mi ESE 9.2 mph - 0.01 in   Mostly Cloudy
2:36 PM 32.0 °F 24.8 °F 28.4 °F 87% 29.24 in 10.0 mi ESE 8.1 mph - 0.01 in   Scattered Clouds
2:56 PM 32.0 °F 24.2 °F 28.4 °F 87% 29.24 in 3.0 mi ESE 9.2 mph - 0.01 in   Mostly Cloudy
3:16 PM 32.0 °F 25.6 °F 28.4 °F 87% 29.23 in 9.0 mi East 6.9 mph - N/A   Scattered Clouds
3:36 PM 32.0 °F 26.4 °F 28.4 °F 87% 29.24 in 9.0 mi ESE 5.8 mph - N/A   Partly Cloudy
3:56 PM 32.0 °F 24.2 °F 28.4 °F 87% 29.24 in 10.0 mi SE 9.2 mph - N/A   Mostly Cloudy
4:16 PM 32.0 °F 23.6 °F 28.4 °F 87% 29.24 in 10.0 mi SE 10.4 mph 16.1 mph N/A   Overcast
4:36 PM 32.0 °F 25.6 °F 28.4 °F 87% 29.24 in 10.0 mi ESE 6.9 mph - N/A   Overcast
4:56 PM 30.2 °F 22.6 °F 26.6 °F 86% 29.24 in 10.0 mi ESE 8.1 mph - N/A   Mostly Cloudy
5:16 PM 30.2 °F 21.9 °F 26.6 °F 86% 29.24 in 10.0 mi ESE 9.2 mph - N/A   Partly Cloudy
5:36 PM 30.2 °F 21.9 °F 26.6 °F 86% 29.24 in 10.0 mi ESE 9.2 mph - N/A   Mostly Cloudy
5:56 PM 30.2 °F 22.6 °F 26.6 °F 86% 29.24 in 10.0 mi East 8.1 mph - N/A   Partly Cloudy
6:16 PM 30.2 °F 22.6 °F 26.6 °F 86% 29.24 in 10.0 mi East 8.1 mph - N/A   Partly Cloudy
6:36 PM 30.2 °F 23.4 °F 26.6 °F 86% 29.24 in 10.0 mi East 6.9 mph - N/A   Clear
6:56 PM 28.4 °F 21.2 °F 26.6 °F 93% 29.24 in 10.0 mi East 6.9 mph - N/A   Clear
7:16 PM 30.2 °F 22.6 °F 26.6 °F 86% 29.24 in 10.0 mi East 8.1 mph - N/A   Partly Cloudy
7:36 PM 30.2 °F 23.4 °F 26.6 °F 86% 29.24 in 10.0 mi ENE 6.9 mph - N/A   Scattered Clouds
7:56 PM 28.4 °F 21.2 °F 26.6 °F 93% 29.23 in 10.0 mi East 6.9 mph - N/A   Scattered Clouds
8:16 PM 30.2 °F 23.4 °F 26.6 °F 86% 29.24 in 10.0 mi ESE 6.9 mph - N/A   Clear
8:36 PM 30.2 °F 23.4 °F 26.6 °F 86% 29.23 in 10.0 mi East 6.9 mph - N/A   Mostly Cloudy
8:56 PM 30.2 °F 22.6 °F 26.6 °F 86% 29.23 in 10.0 mi East 8.1 mph - N/A   Scattered Clouds
9:16 PM 30.2 °F 22.6 °F 26.6 °F 86% 29.23 in 10.0 mi East 8.1 mph - N/A   Clear
9:36 PM 30.2 °F 23.4 °F 26.6 °F 86% 29.24 in 10.0 mi East 6.9 mph - N/A   Clear
9:56 PM 28.4 °F 21.2 °F 24.8 °F 86% 29.24 in 10.0 mi East 6.9 mph - N/A   Clear
10:16 PM 28.4 °F 20.4 °F 24.8 °F 86% 29.24 in 10.0 mi East 8.1 mph - N/A   Clear
10:36 PM 28.4 °F 20.4 °F 24.8 °F 86% 29.23 in 10.0 mi East 8.1 mph - N/A   Clear
10:56 PM 30.2 °F 23.4 °F 26.6 °F 86% 29.24 in 10.0 mi East 6.9 mph - N/A   Partly Cloudy
11:16 PM 28.4 °F 21.2 °F 24.8 °F 86% 29.24 in 10.0 mi East 6.9 mph - N/A   Mostly Cloudy
11:36 PM 28.4 °F 21.2 °F 24.8 °F 86% 29.24 in 10.0 mi East 6.9 mph - N/A   Mostly Cloudy
11:56 PM 28.4 °F 20.4 °F 24.8 °F 86% 29.24 in 10.0 mi East 8.1 mph - N/A   Mostly Cloudy